Probability
3 4 5 6 7 7 6 6 6 4 4 5 6 6 7 7 8 9 8 9 9 9 6 4 4 4 4 5 6 5 2 1 1 1 1 1 1 0 0 0 0 0 0
3 3 4 6 9 9 8 7 6 5 4 5 6 6 7 8 8 9 9 9 9 9 7 4 4 5 6 6 6 4 3 2 2 2 1 1 1 0 0 0 0 0 0
3 4 5 8 11 11 9 8 7 6 5 5 6 6 7 7 8 9 9 9 9 9 7 6 5 6 7 7 6 4 3 3 2 1 1 0 0 0 0 0 0 0 0
4 5 7 9 11 12 11 9 8 7 7 7 7 7 7 6 7 7 8 9 9 9 8 7 7 8 9 8 7 5 4 2 1 0 0 0 0 0 0 0 0 0 0
5 6 8 9 10 11 11 10 8 9 9 9 9 9 8 8 7 6 7 8 9 10 9 9 9 9 9 8 7 5 3 1 0 0 0 0 0 0 0 0 0 0 0
5 6 7 8 9 10 10 10 9 8 9 9 9 10 10 10 8 7 7 8 9 10 10 11 10 9 8 7 6 4 2 1 0 0 0 0 0 0 0 0 0 0 0
4 5 6 7 8 8 9 9 9 8 6 7 8 10 11 11 9 7 7 8 9 9 11 11 9 8 7 6 5 3 1 0 0 0 0 0 0 0 0 0 0 0 0
4 4 6 6 7 7 7 8 9 7 5 6 8 9 10 10 8 7 7 7 7 8 9 9 8 7 6 6 6 3 1 0 0 0 0 0 0 0 0 0 0 0 0
3 4 6 6 6 6 4 5 7 7 5 6 7 8 9 8 7 6 6 6 6 7 7 7 6 6 6 5 4 2 1 0 0 0 0 0 0 0 0 0 0 0 0
4 5 6 6 6 5 3 2 3 4 4 5 6 6 6 6 6 6 6 6 6 6 6 5 4 4 4 3 2 1 0 0 0 0 0 0 0 0 0 0 0 0 0
5 5 5 6 6 5 3 1 0 1 2 3 4 4 4 4 5 6 6 6 6 5 4 3 3 3 3 2 1 0 0 0 0 0 0 0 0 0 0 0 0 0 0
4 4 4 4 5 5 3 1 1 1 2 3 3 3 3 3 4 5 6 6 5 4 3 3 3 3 2 1 0 0 0 0 0 0 0 0 0 0 0 0 0 0 0
2 2 2 3 3 3 1 1 2 2 2 3 3 3 3 3 4 5 6 5 3 2 3 3 3 3 2 1 0 0 0 0 0 0 0 0 1 1 1 0 0 0 0
1 1 1 1 1 1 0 1 2 2 2 2 3 3 3 3 4 4 5 4 3 3 3 3 3 3 3 1 0 0 0 0 0 0 0 0 1 2 2 1 0 0 0
0 0 0 0 0 0 0 0 1 1 1 2 2 2 2 3 3 4 3 3 3 3 3 3 3 3 3 2 1 0 0 0 0 0 0 0 1 2 3 2 1 0 0
0 0 0 0 0 0 0 0 0 0 0 1 1 0 1 2 3 3 3 2 1 2 3 3 3 3 3 3 1 0 0 0 0 0 0 0 0 1 3 3 2 1 0
0 0 1 1 1 0 0 0 0 0 0 0 0 0 0 2 3 4 3 2 0 1 2 3 3 3 3 3 2 1 0 0 0 0 0 0 0 1 2 3 3 2 1
0 0 1 2 2 1 0 0 0 0 0 0 0 0 1 2 3 4 3 2 1 0 1 2 3 3 3 3 3 2 1 0 0 0 0 0 0 0 1 2 3 3 3
0 0 0 1 2 2 1 0 0 0 0 0 0 0 1 2 3 3 2 1 1 0 0 1 2 3 3 3 3 2 1 0 0 0 0 0 0 0 0 1 1 2 2
0 0 0 1 2 3 2 1 0 0 0 0 0 0 0 1 2 3 1 0 0 0 0 0 1 1 2 2 1 1 1 0 0 0 0 0 0 0 0 0 0 1 1
0 0 0 0 1 2 3 2 1 0 0 0 0 0 0 0 1 1 1 0 0 0 0 1 1 1 1 1 1 0 0 0 0 0 0 0 0 0 0 0 0 0 0
0 0 0 0 0 1 2 3 2 1 0 0 0 0 0 0 0 0 0 0 0 0 0 1 1 1 0 0 0 0 0 0 0 0 0 0 0 0 0 0 0 0 0
0 0 0 0 0 0 1 2 3 2 1 0 0 0 0 0 0 0 0 0 0 0 0 0 0 0 0 0 0 0 0 0 0 0 0 0 0 0 0 0 0 0 0
0 0 0 0 0 0 0 1 2 2 1 0 0 0 0 0 0 0 0 0 0 0 0 0 0 0 0 0 0 0 0 0 0 0 0 0 0 0 0 0 0 0 0
0 0 0 1 1 0 0 0 1 2 1 1 0 0 0 0 0 0 0 0 0 0 0 0 0 0 0 0 0 0 0 0 0 0 0 0 0 0 0 0 0 0 0
0 0 1 2 2 1 0 0 0 1 2 2 1 0 0 0 0 0 0 0 0 0 0 0 0 0 0 0 0 0 0 0 0 0 0 0 0 0 0 0 0 0 0
Wind_Speed
1 1 2 4 6 7 7 7 8 8 8 8 8 8 8 9 9 8 9 8 8 9 10 11 11 11 11 11 12 12 12 12 12 11 11 11 12 12 12 12 11 7 12
1 0 3 5 6 7 7 7 7 7 8 7 7 7 7 8 8 9 8 8 8 9 10 10 11 10 11 11 11 11 11 11 11 10 10 9 10 11 11 11 10 7 11
3 2 2 4 6 6 6 7 6 6 7 7 7 7 7 7 8 8 8 7 8 8 9 10 10 10 10 10 10 10 10 10 10 9 8 5 5 10 10 10 10 10 10
3 3 3 5 5 6 6 6 6 6 6 6 6 6 6 7 7 8 8 7 7 8 9 9 9 10 10 9 9 9 10 10 9 8 5 3 3 8 9 10 10 10 10
4 3 3 6 6 6 6 6 6 6 6 6 6 6 6 7 7 7 7 7 7 8 8 9 9 9 9 9 8 9 10 10 9 7 4 3 2 7 9 9 9 9 9
4 3 4 6 6 6 6 6 6 6 6 6 6 6 6 6 6 6 6 6 6 7 8 8 8 8 8 8 8 9 9 9 7 4 4 3 2 7 9 9 9 9 9
4 3 3 6 6 6 6 6 6 6 6 6 5 5 6 6 6 6 6 6 6 7 7 7 7 7 8 8 7 8 8 7 5 3 3 2 3 7 8 8 9 9 9
4 3 3 6 6 6 5 5 5 6 6 6 6 5 5 6 6 5 6 6 6 6 6 7 7 7 7 7 7 7 7 6 4 3 2 2 4 7 8 8 8 9 8
4 4 3 3 4 5 6 5 5 5 5 6 5 5 5 5 5 5 5 5 6 6 6 6 6 6 6 6 6 6 6 6 3 2 2 1 4 6 7 7 7 8 8
4 4 3 3 3 3 3 4 5 5 5 5 6 6 6 5 5 5 5 5 5 6 6 6 7 7 6 6 6 6 6 5 3 2 1 1 4 5 7 7 7 7 7
4 3 3 2 3 2 2 3 4 4 5 5 5 6 5 3 3 3 4 5 5 6 6 6 6 6 6 6 6 6 5 2 2 1 1 2 4 5 6 6 6 7 7
2 2 2 2 2 2 2 2 2 3 3 3 3 3 3 3 3 3 4 4 4 4 5 5 6 5 4 2 3 4 2 2 2 1 1 2 3 4 5 5 6 6 6
1 1 2 1 2 2 2 2 2 2 2 2 3 3 2 2 2 3 2 2 2 3 2 3 3 2 2 1 1 2 2 2 1 1 1 2 2 3 4 4 5 5 6
1 1 1 1 2 2 2 1 1 1 2 2 2 2 2 1 2 2 1 1 1 1 1 2 1 2 2 2 2 2 2 1 1 1 1 2 2 2 2 3 4 5 6
1 0 0 1 2 2 2 1 2 1 1 1 1 1 1 1 1 1 1 1 1 1 1 1 1 2 2 2 2 2 2 2 1 1 1 1 2 2 1 2 3 4 5
1 1 0 1 1 2 2 1 1 1 1 1 1 1 1 1 1 1 1 1 1 1 1 1 1 2 2 2 2 2 1 1 2 2 1 1 1 2 1 1 2 3 4
2 1 1 1 1 2 1 1 1 1 1 0 0 1 1 1 1 1 1 0 0 1 1 1 2 2 2 2 2 1 1 2 1 1 1 1 1 1 1 1 1 2 3
1 1 1 1 1 1 1 1 1 1 1 0 0 0 1 1 1 1 1 1 0 1 1 1 1 2 2 1 1 1 1 1 1 1 1 1 1 1 1 1 1 1 1
0 1 1 1 1 1 1 1 1 0 0 0 0 0 0 0 0 1 1 1 1 1 1 1 1 1 1 1 1 1 1 1 1 1 1 1 1 1 1 1 1 1 1
0 1 1 1 1 1 1 1 1 1 0 0 0 0 1 1 0 1 1 1 1 1 1 1 2 1 1 1 1 1 1 1 1 1 1 1 1 1 1 2 1 1 2
2 1 0 1 1 1 1 1 0 1 1 1 1 1 0 1 1 1 1 1 1 1 2 2 2 2 1 2 2 2 2 2 2 2 1 2 2 1 2 2 1 2 2
1 1 1 0 1 2 1 1 1 1 1 1 1 1 1 1 1 1 1 1 1 1 2 2 2 2 1 1 2 2 1 2 2 2 2 1 1 2 2 2 2 2 2
1 1 1 1 1 1 0 0 1 1 1 1 1 1 1 1 1 1 1 2 2 2 2 2 3 3 3 2 1 2 3 2 1 1 2 2 2 1 1 1 1 1 2
1 1 1 1 0 0 0 1 2 2 2 3 2 2 2 2 2 1 1 1 2 2 3 3 3 2 4 3 2 1 1 2 2 1 1 2 2 1 1 1 1 1 1
1 0 1 1 1 1 1 1 2 2 2 2 2 2 2 2 2 2 2 2 2 2 3 3 3 3 3 3 3 2 1 0 1 2 2 2 2 1 2 1 0 1 1
0 0 1 1 1 1 1 2 2 3 2 2 2 3 3 2 2 2 2 2 2 2 3 3 4 4 4 3 3 2 2 2 2 2 2 2 2 2 2 1 1 1 1
Wind_Direction
320 306 105 119 118 115 111 105 100 98 95 94 94 92 91 91 88 88 90 89 91 95 95 92 90 89 87 87 85 81 78 76 72 70 71 75 78 83 82 76 71 68 77
152 281 94 99 108 110 110 107 104 104 102 99 98 98 97 97 95 90 89 91 94 94 95 95 92 89 88 85 83 82 81 79 75 69 67 71 78 82 84 81 78 79 80
93 75 74 87 99 99 103 107 106 107 107 105 102 100 103 103 100 95 90 93 97 99 99 97 95 91 87 83 83 82 83 83 79 71 64 52 70 82 86 86 84 84 83
91 77 71 68 83 96 94 95 101 107 106 104 103 105 109 108 103 100 94 95 99 102 102 101 98 94 88 83 84 84 84 83 78 69 60 51 65 88 89 90 88 88 86
82 71 65 73 74 82 87 88 87 94 98 96 98 101 107 109 107 102 98 95 102 102 102 102 100 96 91 86 84 88 86 84 76 64 53 47 57 92 91 90 89 86 84
73 64 70 71 76 79 81 86 85 84 87 92 95 96 104 105 105 105 103 99 108 105 103 103 101 99 95 91 89 91 86 83 75 63 54 46 56 92 94 93 93 91 87
82 64 76 71 68 74 77 79 82 84 80 82 87 88 94 98 99 101 103 104 107 107 105 103 103 104 99 96 95 93 91 83 80 74 59 52 79 94 95 95 97 95 90
92 69 70 69 66 62 66 71 79 82 80 78 77 80 88 95 95 94 98 99 99 105 107 104 104 104 99 98 95 89 84 80 86 85 72 69 90 99 99 97 97 96 94
82 71 61 61 61 58 54 58 72 77 76 76 73 75 80 83 89 88 89 95 99 96 96 99 100 103 99 94 87 82 77 74 76 79 88 80 100 110 107 102 102 99 95
67 62 56 46 47 49 48 54 56 67 69 69 68 65 71 71 78 84 83 88 98 101 96 94 92 93 91 83 79 75 70 71 68 64 50 95 104 116 115 110 108 107 101
55 48 46 42 36 31 39 51 55 57 61 66 62 57 62 58 59 74 77 81 91 97 99 97 93 88 84 76 70 65 64 65 68 56 41 100 112 120 124 123 118 116 110
48 31 41 45 36 32 38 43 41 45 45 51 51 49 52 55 52 58 62 71 77 88 98 102 96 89 76 66 62 61 61 66 63 43 28 82 111 124 129 132 129 125 119
146 66 33 44 53 51 45 54 46 43 41 40 47 48 54 54 53 52 51 50 54 64 75 90 89 75 77 76 68 62 68 72 69 35 17 67 104 123 135 138 135 137 128
99 94 47 52 63 56 59 63 60 55 49 40 27 42 68 67 56 57 59 46 47 47 64 77 92 83 76 71 81 78 63 74 74 49 12 53 90 113 130 148 145 144 136
143 120 80 81 76 61 64 61 61 60 63 48 42 35 60 99 92 71 66 60 54 53 61 77 93 89 81 67 65 73 59 63 58 44 358 31 70 85 107 136 151 144 138
173 195 159 109 94 81 74 65 81 54 42 66 56 32 48 88 117 107 79 70 64 67 73 94 110 112 105 90 73 68 65 65 61 46 22 355 42 69 76 104 151 156 149
196 190 170 146 102 97 92 71 67 61 51 59 29 24 31 59 114 132 129 116 84 86 86 87 70 86 87 78 70 61 62 62 60 58 39 26 20 35 76 88 86 162 167
158 169 184 113 110 119 112 101 80 61 47 2 347 359 15 41 107 132 141 158 164 129 119 117 100 90 81 79 65 30 35 51 57 60 62 57 43 17 10 89 63 2 160
176 186 178 148 139 143 129 113 108 81 55 352 350 359 335 11 113 156 156 171 158 145 138 130 107 117 109 80 66 47 34 12 18 44 48 55 65 49 15 6 34 23 5
146 156 169 160 132 127 113 82 57 43 7 355 313 307 351 322 286 175 139 130 126 137 142 131 126 103 128 116 80 47 18 4 20 33 26 28 36 44 37 23 5 353 346
32 30 60 147 155 130 123 144 210 232 269 281 269 289 301 328 293 177 126 158 142 156 180 158 139 130 119 102 89 56 18 26 45 24 30 24 13 24 48 40 22 17 344
30 19 15 356 194 188 195 201 219 232 240 253 268 266 275 283 297 218 163 186 189 174 170 162 139 134 149 137 128 122 66 348 5 359 5 18 16 25 31 33 30 28 10
4 327 326 311 278 243 243 80 43 34 357 295 285 269 277 256 234 277 201 184 200 185 186 182 171 156 169 195 159 145 153 202 279 317 349 359 9 13 354 2 14 22 20
309 325 331 320 315 299 200 193 189 206 227 245 251 252 260 244 232 230 236 209 195 193 190 191 187 185 169 184 204 217 167 159 159 234 310 332 341 331 322 339 354 10 10
259 313 317 340 321 281 236 231 223 236 243 267 267 240 238 239 232 221 222 226 215 208 199 201 198 194 188 189 187 180 161 125 138 167 229 275 304 296 290 291 298 333 339
296 336 323 326 306 288 253 249 242 244 250 261 266 248 242 243 236 225 220 216 222 220 208 207 206 202 198 198 198 189 178 174 187 176 196 243 266 277 286 277 264 277 284